Regional Weather Roundup
Issued by NWS

Home | Current Version | Previous Version | Text Only | Print | Product List | Glossary On
Versions: 1 2 3 4 5 6 7 8 9 10 11 12 13 14 15 16 17 18 19 20 21 22 23 24 25 26 27 28 29 30 31 32 33 34 35 36 37 38 39 40 41 42 43 44 45 46 47 48 49 50
000
ASUS46 KPQR 170110
RWROR

OREGON REGIONAL WEATHER ROUNDUP
NATIONAL WEATHER SERVICE PORTLAND OR
500 PM PST SAT DEC 16 2017

NOTE: "FAIR" INDICATES FEW OR NO CLOUDS BELOW 12,000 FEET WITH
NO SIGNIFICANT WEATHER AND/OR OBSTRUCTIONS TO VISIBILITY.

ORZ001>013-170200-
NORTHWEST OREGON


CITY           SKY/WX    TMP DP  RH WIND       PRES   REMARKS
ASTORIA        CLOUDY    44  42  93 N3        30.30R
NEWPORT        CLOUDY    46  45  93 CALM      30.34F
PORTLAND       CLOUDY    44  41  89 SE5       30.33F
VANCOUVER WA   CLOUDY    44  43  96 CALM      30.33S
SCAPPOOSE      CLOUDY    41  39  93 CALM      30.33S FOG
HILLSBORO      CLOUDY    40  38  93 CALM      30.32F FOG
AURORA         CLOUDY    44  41  89 CALM      30.34S
MCMINNVILLE    CLOUDY    42  41  96 CALM      30.33F FOG
SALEM          CLOUDY    44  38  79 SE5       30.32S
CORVALLIS      CLOUDY    42  39  89 CALM      30.33F
EUGENE         CLOUDY    43  40  89 CALM      30.33F
$$

ORZ021-028-170200-
SOUTHWEST OREGON


CITY           SKY/WX    TMP DP  RH WIND       PRES   REMARKS
NORTH BEND     PTCLDY    47  43  86 NE3       30.33F
BROOKINGS      CLEAR     50  33  52 NW5       30.25R
ROSEBURG       CLOUDY    42  39  89 CALM      30.32F
SEXTON SUMMIT  PTCLDY    32  28  85 N12       30.19F WCI  23
GRANTS PASS    FAIR      43  37  81 CALM      30.30S
MEDFORD        PTCLDY    44  30  57 CALM      30.26R
$$

ORZ014>016-041-170200-
COLUMBIA GORGE


CITY           SKY/WX    TMP DP  RH WIND       PRES   REMARKS
TROUTDALE      CLOUDY    44  41  89 CALM      30.33F
HOOD RIVER     CLOUDY    41  34  75 NW6       30.28F
THE DALLES     MOCLDY    45  36  70 NW9       30.29R
$$

ORZ029>031-041-044-049-050-061>064-502-503-505>511-170200-
EASTERN OREGON


CITY           SKY/WX    TMP DP  RH WIND       PRES   REMARKS
MADRAS         CLOUDY    36  36 100 NW6       30.26S WCI  31
REDMOND        PTCLDY    29  20  69 CALM      30.23S
BEND           PTCLDY    32  19  59 CALM      30.23S
PRINEVILLE     PTCLDY    27  19  74 W3        30.23S
KLAMATH FALLS  PTCLDY    32  17  54 NE3       30.17R
LAKEVIEW       CLEAR     28  19  69 N10       30.17S WCI  19
HERMISTON      CLEAR     32  31  96 E3        30.29R
PENDLETON      CLEAR     33  29  85 CALM      30.26R
JOHN DAY       PTCLDY    31  25  77 CALM      30.21F
MEACHAM        CLOUDY    29  27  92 CALM      30.19R
LA GRANDE      CLOUDY    31  27  85 N3        30.24R
BAKER CITY     CLEAR     29  21  72 S6        30.20R WCI  23
BURNS          PTCLDY    26  17  68 W12       30.19R WCI  16
ROME             N/A     28  18  66 NW7       30.15R WCI  21
ONTARIO        PTCLDY    35  25  66 NW10      30.20R WCI  27
$$



USA.gov is the U.S. government's official web portal to all federal, state and local government web resources and services.